Location: Sungai Bunut
(2.6333°N, 113.7333°E)
Time: 20:07:59
(UTC+00:00)

A-11 Canister half - All Passes

Search period start: 06 December 2023 00:00
Search period end: 16 December 2023 00:00
Orbit: 1514 x 1686 km, 47.2° (Epoch: 05 December)

Date Brightness Start Highest point End Pass type
(mag) Time Alt. Az. Time Alt. Az. Time Alt. Az.
06 Dec - 00:04:35 10° NNW 00:14:10 46° NE 00:23:37 10° ESE daylight
06 Dec - 02:09:47 10° WNW 02:19:02 41° SW 02:28:09 10° SSE daylight
06 Dec - 10:58:08 10° SSE 11:01:11 12° SE 11:04:15 10° ESE visible
06 Dec - 12:56:59 10° SSW 13:06:11 74° SE 13:15:34 10° NE visible
06 Dec - 15:04:20 10° W 15:11:10 23° NW 15:18:10 10° N visible
06 Dec - 23:41:45 10° NNW 23:51:10 42° NE 00:00:28 10° ESE daylight
07 Dec - 01:46:35 10° WNW 01:56:03 44° SW 02:05:22 10° SSE daylight
07 Dec - 10:37:00 10° SE 10:38:09 10° SE 10:39:19 10° SE visible
07 Dec - 12:34:06 10° SSW 12:43:15 68° SE 12:52:33 10° NE visible
07 Dec - 14:40:59 10° W 14:48:09 25° NW 14:55:29 10° N visible
07 Dec - 23:18:55 10° NNW 23:28:09 39° NE 23:37:17 10° ESE daylight
08 Dec - 01:23:26 10° WNW 01:33:03 48° SW 01:42:34 10° SSE daylight
08 Dec - 12:11:15 10° SSW 12:20:19 62° SE 12:29:30 10° NE visible
08 Dec - 14:17:41 10° W 14:25:09 27° NW 14:32:47 10° N visible
08 Dec - 22:56:07 10° NNW 23:05:07 36° NE 23:14:03 10° ESE daylight
09 Dec - 01:00:17 10° NW 01:10:04 53° SW 01:19:44 10° SSE daylight
09 Dec - 11:48:23 10° SSW 11:57:23 57° SE 12:06:27 10° NE visible
09 Dec - 13:54:26 10° WSW 14:02:09 30° NW 14:10:03 10° N visible
09 Dec - 22:33:21 10° NNW 22:42:05 33° NE 22:50:47 10° ESE daylight
10 Dec - 00:37:10 10° NW 00:47:04 58° SW 00:56:52 10° SSE daylight
10 Dec - 11:25:34 10° SSW 11:34:26 52° SE 11:43:23 10° NE visible
10 Dec - 13:31:12 10° WSW 13:39:10 33° NW 13:47:18 10° NNE visible
10 Dec - 22:10:35 10° N 22:19:04 30° NE 22:27:30 10° ESE daylight
11 Dec - 00:14:05 10° NW 00:24:05 63° SW 00:34:00 10° SSE daylight
11 Dec - 02:28:37 10° SW 02:29:29 10° SW 02:30:22 10° SW daylight
11 Dec - 11:02:45 10° SSW 11:11:30 47° SE 11:20:17 10° ENE visible
11 Dec - 13:08:00 10° WSW 13:16:11 36° NW 13:24:32 10° NNE visible
11 Dec - 21:47:52 10° N 21:56:01 27° NE 22:04:09 10° E visible
11 Dec - 23:51:01 10° NW 00:01:06 68° SW 00:11:07 10° SSE daylight
12 Dec - 02:03:14 10° WSW 02:06:25 12° SW 02:09:36 10° SSW daylight
12 Dec - 10:39:57 10° SSW 10:48:34 43° SE 10:57:09 10° ENE visible
12 Dec - 12:44:50 10° WSW 12:53:13 39° NW 13:01:45 10° NNE visible
12 Dec - 21:25:10 10° N 21:32:58 25° NE 21:40:47 10° E visible
12 Dec - 23:27:58 10° NW 23:38:06 74° SW 23:48:11 10° SSE daylight
13 Dec - 01:38:59 10° WSW 01:43:20 13° SW 01:47:42 10° SSW daylight
13 Dec - 10:17:11 10° SSW 10:25:37 39° SE 10:34:01 10° ENE daylight
13 Dec - 12:21:42 10° WSW 12:30:15 43° NW 12:38:56 10° NNE visible
13 Dec - 21:02:30 10° N 21:09:55 23° NE 21:17:20 10° E visible
13 Dec - 23:04:56 10° NW 23:15:07 80° SW 23:25:15 10° SE daylight
14 Dec - 01:15:04 10° W 01:20:17 15° SW 01:25:31 10° SSW daylight
14 Dec - 09:54:26 10° SSW 10:02:40 36° SE 10:10:51 10° ENE daylight
14 Dec - 11:58:36 10° WSW 12:07:18 46° NW 12:16:07 10° NNE visible
14 Dec - 20:39:53 10° N 20:46:51 21° NE 20:53:51 10° E visible
14 Dec - 22:41:56 10° NW 22:52:07 86° SW 23:02:18 10° SE daylight
15 Dec - 00:51:17 10° W 00:57:14 17° SW 01:03:11 10° S daylight
15 Dec - 09:31:42 10° S 09:39:43 32° SE 09:47:38 10° ENE daylight
15 Dec - 11:35:30 10° WSW 11:44:20 51° NW 11:53:17 10° NNE visible
15 Dec - 20:17:19 10° N 20:23:47 19° NE 20:30:17 10° E visible
15 Dec - 22:18:57 10° NW 22:29:07 88° NE 22:39:19 10° SE daylight
